Regional Weather Roundup
Issued by NWS

Home | Current Version | Previous Version | Text Only | Print | Product List | Glossary On
Versions: 1 2 3 4 5 6 7 8 9 10 11 12 13 14 15 16 17 18 19 20 21 22 23 24 25 26 27 28 29 30 31 32 33 34 35 36 37 38 39 40 41 42 43 44 45 46 47 48 49 50
000
ASUS43 KLSX 302259
RWRMO

WEATHER SUMMARY FOR MISSOURI
NATIONAL WEATHER SERVICE SPRINGFIELD MO
600 PM CDT WED JUL 30 2014

NOTE: "FAIR" INDICATES FEW OR NO CLOUDS BELOW 12,000 FEET WITH NO
       SIGNIFICANT WEATHER AND/OR OBSTRUCTIONS TO VISIBILITY.
       CURRENT SKY AND/OR WEATHER CONDITIONS ARE NOT AVAILABLE FOR
       CHILLICOTHE AND FARMINGTON.

MOZ001>031-035>038-043-044-053-054-310000-
...NORTHERN AND WESTERN MISSOURI...

CITY           SKY/WX    TMP DP  RH WIND       PRES   REMARKS
KANSAS CTY INT CLOUDY    80  55  42 N6        30.08S
KANSAS C DTWN  CLOUDY    79  56  45 NE7       30.06S
LEE`S SUMMIT   CLOUDY    78  57  48 NE3       30.08S
ST JOSEPH      PTSUNNY   80  57  45 N6        30.08F
KIRKSVILLE     MOSUNNY   80  56  43 N6        30.08S

$$
MOZ066>068-077>081-088>096-101>105-310000-
...SOUTHWEST MISSOURI...

CITY           SKY/WX    TMP DP  RH WIND       PRES   REMARKS
SPRINGFIELD    LGT RAIN  69  66  90 S7        30.09F
JOPLIN         RAIN      67  66  97 E3        30.09S FOG

$$
MOZ032>034-039>042-045>050-055>058-069>072-310000-
...CENTRAL MISSOURI...

CITY           SKY/WX    TMP DP  RH WIND       PRES   REMARKS
COLUMBIA       PTSUNNY   80  57  45 N6        30.06F
JEFFERSON CITY CLOUDY    79  59  50 S5        30.04F
ROLLA          CLOUDY    76  56  49 SW5       30.06F
SEDALIA        CLOUDY    77  59  53 SW8       30.07F
OSAGE BEACH    CLOUDY    75  61  60 W3        30.07F

$$
MOZ051-052-059>065-310000-
...EAST CENTRAL MISSOURI...

CITY           SKY/WX    TMP DP  RH WIND       PRES   REMARKS
ST LOUIS INTL  PTSUNNY   83  55  38 N8        30.05S
SPIRIT OF STL  PTSUNNY   83  54  36 N6        30.03F
ST CHARLES     MOSUNNY   81  55  40 N3        30.04S

$$
MOZ072>076-082>087-097>100-106>115-310000-
...SOUTH CENTRAL AND SOUTHEAST MISSOURI...

CITY           SKY/WX    TMP DP  RH WIND       PRES   REMARKS
CAPE GIRARDEAU CLOUDY    76  63  64 SW3       30.07F
FARMINGTON     CLOUDY    73  63  68 S7        30.09F
POPLAR BLUFF   CLOUDY    76  62  62 SW5       30.06F
WEST PLAINS    CLOUDY    69  64  84 W3        30.11S

$$


USA.gov is the U.S. government's official web portal to all federal, state and local government web resources and services.